N2002TB KICT-KMDW

Flight info

Callsign N2002TB
Flight time 1h 31m
Altitude 41000
Route ICT PEABO GOSSL MCI IRK ENDEE8
Aircraft C525/L-SDFGRWY/S

Departure

Time 2026-05-06 18:19
Airport Wichita Dwight D. Eisenhower National Airport (KICT)

Arrival

Time 2026-05-06 19:50
Airport Chicago Midway International Airport (KMDW)
Time Latitude Longitude Altitude Speed Heading
2026-05-06 18:17 37.65939 -97.41864 1313 ft 15 kts 198°
2026-05-06 18:17 37.65754 -97.41951 1315 ft 49 kts 200°
2026-05-06 18:18 37.65285 -97.42167 1316 ft 92 kts 199°
2026-05-06 18:18 37.64554 -97.42504 1339 ft 127 kts 199°
2026-05-06 18:18 37.63672 -97.42923 1491 ft 144 kts 200°
2026-05-06 18:18 37.62727 -97.43403 1852 ft 147 kts 208°
2026-05-06 18:19 37.62084 -97.44385 2147 ft 150 kts 261°
2026-05-06 18:19 37.62323 -97.45527 2549 ft 134 kts 320°
2026-05-06 18:19 37.63103 -97.46153 2852 ft 136 kts 337°
2026-05-06 18:19 37.63947 -97.46679 3063 ft 150 kts 339°
2026-05-06 18:20 37.64919 -97.47270 3348 ft 164 kts 339°
2026-05-06 18:20 37.66011 -97.47778 3622 ft 175 kts 354°
2026-05-06 18:20 37.67252 -97.48138 3895 ft 192 kts 342°
2026-05-06 18:20 37.68471 -97.49056 4182 ft 216 kts 324°
2026-05-06 18:21 37.69534 -97.50392 4764 ft 222 kts 315°
2026-05-06 18:21 37.70481 -97.51862 5608 ft 214 kts 313°
2026-05-06 18:21 37.71397 -97.53352 6212 ft 217 kts 312°
2026-05-06 18:21 37.72305 -97.54830 6819 ft 218 kts 311°
2026-05-06 18:22 37.73249 -97.56347 7477 ft 217 kts 311°
2026-05-06 18:22 37.74304 -97.57709 8006 ft 220 kts 328°
2026-05-06 18:22 37.75716 -97.58324 8594 ft 219 kts 357°
2026-05-06 18:22 37.77175 -97.57945 9236 ft 217 kts 24°
2026-05-06 18:23 37.78509 -97.56965 9692 ft 224 kts 30°
2026-05-06 18:23 37.79886 -97.55917 10109 ft 231 kts 27°
2026-05-06 18:23 37.81320 -97.54986 10553 ft 236 kts 22°
2026-05-06 18:23 37.82807 -97.54145 10994 ft 240 kts 19°
2026-05-06 18:24 37.84346 -97.53336 11454 ft 244 kts 18°
2026-05-06 18:24 37.85952 -97.52514 11858 ft 249 kts 17°
2026-05-06 18:24 37.87557 -97.51697 12252 ft 254 kts 17°
2026-05-06 18:24 37.89193 -97.50859 12735 ft 256 kts 15°
2026-05-06 18:25 37.90871 -97.50000 13091 ft 262 kts 16°
2026-05-06 18:25 37.92561 -97.49133 13442 ft 268 kts 15°
2026-05-06 18:25 37.94256 -97.48260 13856 ft 270 kts 14°
2026-05-06 18:25 37.95967 -97.47375 14238 ft 273 kts 14°
2026-05-06 18:26 37.97707 -97.46478 14661 ft 275 kts 14°
2026-05-06 18:26 37.99447 -97.45579 15145 ft 272 kts 13°
2026-05-06 18:26 38.01151 -97.44701 15469 ft 277 kts 13°
2026-05-06 18:26 38.02919 -97.43790 15811 ft 280 kts 13°
2026-05-06 18:27 38.04724 -97.42858 16186 ft 283 kts 13°
2026-05-06 18:27 38.06537 -97.41922 16538 ft 285 kts 13°
2026-05-06 18:27 38.08347 -97.40984 16954 ft 285 kts 13°
2026-05-06 18:27 38.10212 -97.40022 17284 ft 287 kts 13°
2026-05-06 18:28 38.12060 -97.39062 17655 ft 288 kts 12°
2026-05-06 18:28 38.13930 -97.38096 17961 ft 291 kts 12°
2026-05-06 18:28 38.15845 -97.37108 18273 ft 293 kts 12°
2026-05-06 18:28 38.17726 -97.36140 18645 ft 293 kts 11°
2026-05-06 18:29 38.19618 -97.35173 18882 ft 298 kts 12°
2026-05-06 18:29 38.21518 -97.34204 19375 ft 296 kts 12°
2026-05-06 18:29 38.23461 -97.33219 19694 ft 304 kts 11°
2026-05-06 18:29 38.25406 -97.32229 20148 ft 306 kts 11°
2026-05-06 18:30 38.27422 -97.31203 20486 ft 313 kts 11°
2026-05-06 18:30 38.29442 -97.30168 20970 ft 313 kts 12°
2026-05-06 18:30 38.31444 -97.29130 21481 ft 313 kts 11°
2026-05-06 18:30 38.33487 -97.28084 21797 ft 319 kts 11°
2026-05-06 18:31 38.35553 -97.27021 22307 ft 317 kts 12°
2026-05-06 18:31 38.37593 -97.25969 22669 ft 321 kts 11°
2026-05-06 18:31 38.39695 -97.24891 23027 ft 324 kts 11°
2026-05-06 18:31 38.41788 -97.23812 23413 ft 328 kts 11°
2026-05-06 18:32 38.43898 -97.22607 23799 ft 336 kts 19°
2026-05-06 18:32 38.45817 -97.20783 24056 ft 357 kts 40°
2026-05-06 18:32 38.47202 -97.18083 24342 ft 367 kts 66°
2026-05-06 18:32 38.48016 -97.15032 24648 ft 370 kts 76°
2026-05-06 18:33 38.48643 -97.11824 24996 ft 372 kts 79°
2026-05-06 18:33 38.49305 -97.08595 25234 ft 378 kts 75°
2026-05-06 18:33 38.50105 -97.05450 25568 ft 379 kts 72°
2026-05-06 18:33 38.51079 -97.02271 25816 ft 384 kts 66°
2026-05-06 18:34 38.52161 -96.99152 26101 ft 387 kts 65°
2026-05-06 18:34 38.53291 -96.96079 26394 ft 390 kts 64°
2026-05-06 18:34 38.54460 -96.92939 26619 ft 395 kts 63°
2026-05-06 18:34 38.55631 -96.89754 26957 ft 394 kts 63°
2026-05-06 18:35 38.56781 -96.86563 27214 ft 398 kts 64°
2026-05-06 18:35 38.57924 -96.83327 27403 ft 403 kts 66°
2026-05-06 18:35 38.59068 -96.80043 27676 ft 405 kts 66°
2026-05-06 18:35 38.60198 -96.76781 27850 ft 411 kts 66°
2026-05-06 18:36 38.61353 -96.73442 28151 ft 411 kts 66°
2026-05-06 18:36 38.62519 -96.70073 28329 ft 416 kts 66°
2026-05-06 18:36 38.63695 -96.66680 28580 ft 419 kts 66°
2026-05-06 18:36 38.64861 -96.63319 28877 ft 419 kts 66°
2026-05-06 18:37 38.66058 -96.59868 29067 ft 423 kts 66°
2026-05-06 18:37 38.67245 -96.56444 29204 ft 428 kts 66°
2026-05-06 18:37 38.68466 -96.52917 29447 ft 431 kts 65°
2026-05-06 18:37 38.69684 -96.49397 29624 ft 434 kts 66°
2026-05-06 18:38 38.70919 -96.45819 29797 ft 438 kts 66°
2026-05-06 18:38 38.72145 -96.42258 30094 ft 437 kts 65°
2026-05-06 18:38 38.73389 -96.38645 30291 ft 441 kts 65°
2026-05-06 18:38 38.74634 -96.35023 30441 ft 445 kts 66°
2026-05-06 18:39 38.75876 -96.31409 30687 ft 444 kts 66°
2026-05-06 18:39 38.77135 -96.27735 30834 ft 447 kts 66°
2026-05-06 18:39 38.78388 -96.24078 30967 ft 450 kts 66°
2026-05-06 18:40 38.80912 -96.16695 31329 ft 452 kts 65°
2026-05-06 18:40 38.82194 -96.12936 31481 ft 454 kts 66°
2026-05-06 18:40 38.83459 -96.09222 31664 ft 455 kts 66°
2026-05-06 18:40 38.84730 -96.05487 31847 ft 456 kts 67°
2026-05-06 18:41 38.86005 -96.01738 31964 ft 459 kts 66°
2026-05-06 18:41 38.87284 -95.97968 32130 ft 461 kts 67°
2026-05-06 18:41 38.88570 -95.94175 32264 ft 463 kts 65°
2026-05-06 18:41 38.89856 -95.90377 32465 ft 463 kts 65°
2026-05-06 18:42 38.91153 -95.86542 32586 ft 466 kts 65°
2026-05-06 18:42 38.92450 -95.82700 32706 ft 468 kts 65°
2026-05-06 18:42 38.93734 -95.78893 32876 ft 469 kts 67°
2026-05-06 18:42 38.95030 -95.75045 33076 ft 468 kts 65°
2026-05-06 18:43 38.96337 -95.71159 33225 ft 469 kts 65°
2026-05-06 18:43 38.97633 -95.67299 33347 ft 471 kts 67°
2026-05-06 18:43 38.98936 -95.63416 33453 ft 474 kts 65°
2026-05-06 18:43 39.00241 -95.59518 33638 ft 474 kts 66°
2026-05-06 18:44 39.01551 -95.55597 33690 ft 478 kts 66°
2026-05-06 18:44 39.02879 -95.51621 33840 ft 479 kts 65°
2026-05-06 18:44 39.04193 -95.47683 34031 ft 478 kts 66°
2026-05-06 18:44 39.05499 -95.43760 34192 ft 478 kts 66°
2026-05-06 18:45 39.06812 -95.39813 34315 ft 479 kts 66°
2026-05-06 18:45 39.08121 -95.35872 34531 ft 477 kts 66°
2026-05-06 18:45 39.09429 -95.31929 34636 ft 478 kts 66°
2026-05-06 18:46 39.12065 -95.23965 34760 ft 481 kts 65°
2026-05-06 18:46 39.13362 -95.20036 34948 ft 478 kts 67°
2026-05-06 18:46 39.14671 -95.16071 35046 ft 477 kts 65°
2026-05-06 18:47 39.17279 -95.08141 35198 ft 479 kts 65°
2026-05-06 18:47 39.18567 -95.04222 35307 ft 479 kts 67°
2026-05-06 18:47 39.19879 -95.00221 35387 ft 480 kts 65°
2026-05-06 18:48 39.22483 -94.92266 35549 ft 481 kts 66°
2026-05-06 18:48 39.25084 -94.84299 35724 ft 483 kts 65°
2026-05-06 18:49 39.27705 -94.76269 35940 ft 483 kts 64°
2026-05-06 18:49 39.30516 -94.68372 36143 ft 482 kts 60°
2026-05-06 18:50 39.33671 -94.60716 36368 ft 480 kts 56°
2026-05-06 18:50 39.36903 -94.53152 36588 ft 480 kts 57°
2026-05-06 18:51 39.40075 -94.45503 36743 ft 482 kts 58°
2026-05-06 18:51 39.43200 -94.37788 36881 ft 483 kts 59°
2026-05-06 18:52 39.46311 -94.30058 37050 ft 481 kts 59°
2026-05-06 18:52 39.49423 -94.22343 37161 ft 482 kts 58°
2026-05-06 18:53 39.52529 -94.14638 37265 ft 482 kts 59°
2026-05-06 18:53 39.55645 -94.06889 37396 ft 482 kts 58°
2026-05-06 18:54 39.58713 -93.99238 37490 ft 482 kts 59°
2026-05-06 18:54 39.60195 -93.95522 38274 ft 458 kts 59°
2026-05-06 18:54 39.61627 -93.91918 38677 ft 450 kts 58°
2026-05-06 18:55 39.64466 -93.84808 38836 ft 450 kts 58°
2026-05-06 18:55 39.67258 -93.77812 38966 ft 450 kts 58°
2026-05-06 18:55 39.68651 -93.74312 39081 ft 449 kts 58°
2026-05-06 18:56 39.70054 -93.70778 39152 ft 449 kts 58°
2026-05-06 18:56 39.72841 -93.63746 39291 ft 450 kts 58°
2026-05-06 18:57 39.75659 -93.56615 39393 ft 451 kts 59°
2026-05-06 18:57 39.78455 -93.49522 39491 ft 452 kts 59°
2026-05-06 18:57 39.79857 -93.45957 39629 ft 451 kts 59°
2026-05-06 18:58 39.81228 -93.42469 39730 ft 449 kts 58°
2026-05-06 18:58 39.84027 -93.35335 39876 ft 449 kts 58°
2026-05-06 18:58 39.85407 -93.31810 39979 ft 447 kts 59°
2026-05-06 18:59 39.86778 -93.28307 40029 ft 447 kts 59°
2026-05-06 18:59 39.89519 -93.21291 40095 ft 447 kts 59°
2026-05-06 19:00 39.92265 -93.14245 40186 ft 447 kts 59°
2026-05-06 19:00 39.94991 -93.07235 40266 ft 447 kts 59°
2026-05-06 19:01 39.97738 -93.00150 40345 ft 447 kts 60°
2026-05-06 19:01 40.00443 -92.93158 40439 ft 446 kts 60°
2026-05-06 19:02 40.03244 -92.85902 40519 ft 447 kts 59°
2026-05-06 19:02 40.06052 -92.78610 40617 ft 446 kts 60°
2026-05-06 19:03 40.08831 -92.71373 40692 ft 447 kts 59°
2026-05-06 19:03 40.11612 -92.64116 40773 ft 447 kts 59°
2026-05-06 19:04 40.14160 -92.56743 40848 ft 449 kts 68°
2026-05-06 19:04 40.15785 -92.48795 40929 ft 449 kts 77°
2026-05-06 19:05 40.17194 -92.40864 41011 ft 450 kts 76°
2026-05-06 19:05 40.18744 -92.32893 41069 ft 450 kts 75°
2026-05-06 19:06 40.20314 -92.24972 41075 ft 451 kts 75°
2026-05-06 19:06 40.21851 -92.17190 41060 ft 452 kts 75°
2026-05-06 19:07 40.24869 -92.01791 41064 ft 454 kts 75°
2026-05-06 19:08 40.26443 -91.93719 41061 ft 455 kts 75°
2026-05-06 19:08 40.28001 -91.85693 41058 ft 457 kts 75°
2026-05-06 19:09 40.29554 -91.77657 41064 ft 458 kts 75°
2026-05-06 19:09 40.31113 -91.69563 41061 ft 459 kts 76°
2026-05-06 19:10 40.32671 -91.61440 41067 ft 460 kts 75°
2026-05-06 19:10 40.34202 -91.53423 40590 ft 476 kts 75°
2026-05-06 19:10 40.35007 -91.49199 40097 ft 483 kts 75°
2026-05-06 19:11 40.35864 -91.44919 39589 ft 485 kts 72°
2026-05-06 19:11 40.36876 -91.40713 39089 ft 487 kts 69°
2026-05-06 19:11 40.38066 -91.36629 38590 ft 488 kts 64°
2026-05-06 19:11 40.39404 -91.32552 38073 ft 489 kts 63°
2026-05-06 19:12 40.40728 -91.28551 37578 ft 490 kts 64°
2026-05-06 19:12 40.42057 -91.24444 37074 ft 492 kts 64°
2026-05-06 19:12 40.43352 -91.20355 36566 ft 493 kts 66°
2026-05-06 19:12 40.44647 -91.16216 36010 ft 495 kts 65°
2026-05-06 19:13 40.45941 -91.12057 35462 ft 496 kts 66°
2026-05-06 19:13 40.47237 -91.07880 35005 ft 498 kts 65°
2026-05-06 19:13 40.48543 -91.03664 34551 ft 499 kts 65°
2026-05-06 19:13 40.49827 -90.99479 34108 ft 501 kts 66°
2026-05-06 19:14 40.51097 -90.95320 33672 ft 503 kts 66°
2026-05-06 19:14 40.52384 -90.91101 33223 ft 504 kts 65°
2026-05-06 19:14 40.53660 -90.86916 32784 ft 506 kts 66°
2026-05-06 19:14 40.54940 -90.82712 32338 ft 507 kts 65°
2026-05-06 19:15 40.56246 -90.78416 31888 ft 507 kts 66°
2026-05-06 19:15 40.57535 -90.74168 31445 ft 507 kts 66°
2026-05-06 19:15 40.58838 -90.69872 30982 ft 507 kts 66°
2026-05-06 19:15 40.60122 -90.65631 30542 ft 507 kts 65°
2026-05-06 19:16 40.61402 -90.61392 30097 ft 506 kts 65°
2026-05-06 19:16 40.62693 -90.57111 29636 ft 505 kts 66°
2026-05-06 19:16 40.63974 -90.52857 29161 ft 504 kts 65°
2026-05-06 19:16 40.65246 -90.48625 28704 ft 498 kts 65°
2026-05-06 19:17 40.66488 -90.44491 28233 ft 491 kts 65°
2026-05-06 19:17 40.67735 -90.40330 27753 ft 485 kts 66°
2026-05-06 19:17 40.68960 -90.36237 27257 ft 480 kts 66°
2026-05-06 19:17 40.70157 -90.32231 26770 ft 474 kts 67°
2026-05-06 19:18 40.71349 -90.28235 26289 ft 467 kts 66°
2026-05-06 19:18 40.72506 -90.24342 25836 ft 461 kts 66°
2026-05-06 19:18 40.73624 -90.20578 25378 ft 455 kts 68°
2026-05-06 19:18 40.74716 -90.16898 24904 ft 449 kts 68°
2026-05-06 19:19 40.75812 -90.13193 24434 ft 444 kts 67°
2026-05-06 19:19 40.76903 -90.09506 24107 ft 433 kts 67°
2026-05-06 19:19 40.77937 -90.06002 24006 ft 418 kts 66°
2026-05-06 19:19 40.78979 -90.02468 23506 ft 416 kts 66°
2026-05-06 19:20 40.80011 -89.98967 22987 ft 414 kts 67°
2026-05-06 19:20 40.81057 -89.95413 22477 ft 412 kts 66°
2026-05-06 19:20 40.82086 -89.91909 21962 ft 409 kts 67°
2026-05-06 19:20 40.83096 -89.88467 21475 ft 405 kts 66°
2026-05-06 19:21 40.84104 -89.85031 20955 ft 401 kts 66°
2026-05-06 19:21 40.85110 -89.81589 20446 ft 397 kts 66°
2026-05-06 19:21 40.86092 -89.78233 19957 ft 393 kts 66°
2026-05-06 19:21 40.87139 -89.74944 19457 ft 388 kts 63°
2026-05-06 19:22 40.88356 -89.71762 18940 ft 383 kts 58°
2026-05-06 19:22 40.89682 -89.68808 18440 ft 377 kts 54°
2026-05-06 19:22 40.91053 -89.65874 17937 ft 374 kts 54°
2026-05-06 19:22 40.92381 -89.62988 17446 ft 371 kts 55°
2026-05-06 19:23 40.93698 -89.60064 16954 ft 367 kts 56°
2026-05-06 19:23 40.94965 -89.57207 16464 ft 364 kts 56°
2026-05-06 19:23 40.96231 -89.54336 15974 ft 361 kts 56°
2026-05-06 19:23 40.97477 -89.51498 15463 ft 358 kts 57°
2026-05-06 19:24 40.98717 -89.48673 14958 ft 355 kts 56°
2026-05-06 19:24 40.99954 -89.45852 14448 ft 352 kts 57°
2026-05-06 19:24 41.01167 -89.43082 13951 ft 350 kts 57°
2026-05-06 19:24 41.02368 -89.40340 13459 ft 347 kts 57°
2026-05-06 19:25 41.03567 -89.37597 12969 ft 344 kts 57°
2026-05-06 19:25 41.04767 -89.34855 12471 ft 341 kts 58°
2026-05-06 19:25 41.05936 -89.32179 11978 ft 338 kts 58°
2026-05-06 19:25 41.07092 -89.29530 11485 ft 335 kts 57°
2026-05-06 19:26 41.08250 -89.26875 10988 ft 332 kts 57°
2026-05-06 19:26 41.09400 -89.24236 10485 ft 329 kts 57°
2026-05-06 19:26 41.10512 -89.21680 10084 ft 323 kts 57°
2026-05-06 19:26 41.11598 -89.19173 9986 ft 301 kts 57°
2026-05-06 19:27 41.12593 -89.16875 9978 ft 282 kts 57°
2026-05-06 19:27 41.13548 -89.14673 9976 ft 265 kts 56°
2026-05-06 19:27 41.14429 -89.12641 9976 ft 250 kts 57°
2026-05-06 19:27 41.15276 -89.10690 9981 ft 238 kts 56°
2026-05-06 19:28 41.16082 -89.08830 9993 ft 232 kts 56°
2026-05-06 19:28 41.16881 -89.06991 9985 ft 227 kts 56°
2026-05-06 19:28 41.17652 -89.05211 9985 ft 222 kts 56°
2026-05-06 19:28 41.18409 -89.03464 9985 ft 218 kts 56°
2026-05-06 19:29 41.19158 -89.01732 9991 ft 213 kts 56°
2026-05-06 19:29 41.19885 -89.00048 9991 ft 210 kts 56°
2026-05-06 19:29 41.20601 -88.98389 9994 ft 207 kts 56°
2026-05-06 19:29 41.21315 -88.96738 9992 ft 204 kts 56°
2026-05-06 19:30 41.21959 -88.95077 9992 ft 206 kts 60°
2026-05-06 19:30 41.22555 -88.93353 9997 ft 209 kts 62°
2026-05-06 19:30 41.23161 -88.91576 9997 ft 213 kts 62°
2026-05-06 19:30 41.23786 -88.89761 9996 ft 216 kts 61°
2026-05-06 19:31 41.24421 -88.87946 9997 ft 219 kts 62°
2026-05-06 19:31 41.25064 -88.86116 9993 ft 222 kts 62°
2026-05-06 19:31 41.26376 -88.82395 9994 ft 226 kts 62°
2026-05-06 19:32 41.27037 -88.80518 9991 ft 228 kts 62°
2026-05-06 19:32 41.27705 -88.78619 9990 ft 230 kts 62°
2026-05-06 19:32 41.28376 -88.76708 9991 ft 231 kts 62°
2026-05-06 19:32 41.29029 -88.74850 9973 ft 233 kts 62°
2026-05-06 19:33 41.29748 -88.72808 9595 ft 251 kts 62°
2026-05-06 19:33 41.30502 -88.70665 9243 ft 265 kts 62°
2026-05-06 19:33 41.31293 -88.68410 8883 ft 275 kts 62°
2026-05-06 19:33 41.32110 -88.66074 8518 ft 283 kts 63°
2026-05-06 19:34 41.32955 -88.63656 8145 ft 289 kts 62°
2026-05-06 19:34 41.33798 -88.61242 7771 ft 292 kts 63°
2026-05-06 19:34 41.34660 -88.58773 7390 ft 294 kts 63°
2026-05-06 19:34 41.35525 -88.56297 7012 ft 295 kts 63°
2026-05-06 19:35 41.36375 -88.53851 6641 ft 296 kts 63°
2026-05-06 19:35 41.37242 -88.51366 6259 ft 295 kts 62°
2026-05-06 19:35 41.38245 -88.48981 6017 ft 288 kts 52°
2026-05-06 19:35 41.39481 -88.46960 5976 ft 276 kts 45°
2026-05-06 19:36 41.40741 -88.45110 5969 ft 266 kts 45°
2026-05-06 19:36 41.41957 -88.43284 5962 ft 259 kts 46°
2026-05-06 19:36 41.43106 -88.41483 5976 ft 253 kts 47°
2026-05-06 19:36 41.44221 -88.39685 5971 ft 249 kts 48°
2026-05-06 19:37 41.45293 -88.37929 5963 ft 245 kts 47°
2026-05-06 19:37 41.46365 -88.36166 5968 ft 242 kts 47°
2026-05-06 19:37 41.47393 -88.34467 5976 ft 239 kts 49°
2026-05-06 19:37 41.48083 -88.33328 5979 ft 237 kts 49°
2026-05-06 19:38 41.49429 -88.31104 5982 ft 234 kts 48°
2026-05-06 19:38 41.50420 -88.29459 5984 ft 233 kts 49°
2026-05-06 19:38 41.51339 -88.27792 5984 ft 233 kts 53°
2026-05-06 19:39 41.52764 -88.24700 5984 ft 232 kts 57°
2026-05-06 19:39 41.53603 -88.22810 5986 ft 231 kts 56°
2026-05-06 19:39 41.54438 -88.20959 5984 ft 231 kts 56°
2026-05-06 19:39 41.55268 -88.19146 5985 ft 230 kts 56°
2026-05-06 19:40 41.56102 -88.17340 5984 ft 230 kts 56°
2026-05-06 19:40 41.56938 -88.15533 5983 ft 230 kts 56°
2026-05-06 19:40 41.57787 -88.13699 5982 ft 229 kts 55°
2026-05-06 19:40 41.58624 -88.11886 5981 ft 229 kts 56°
2026-05-06 19:41 41.59454 -88.10091 5982 ft 229 kts 56°
2026-05-06 19:41 41.60287 -88.08286 5979 ft 229 kts 56°
2026-05-06 19:41 41.61124 -88.06473 5981 ft 229 kts 56°
2026-05-06 19:41 41.62244 -88.04044 5978 ft 229 kts 56°
2026-05-06 19:42 41.62795 -88.02849 5978 ft 229 kts 56°
2026-05-06 19:42 41.63610 -88.01082 5979 ft 229 kts 56°
2026-05-06 19:42 41.64389 -87.99389 5978 ft 229 kts 56°
2026-05-06 19:42 41.65226 -87.97569 5975 ft 229 kts 56°
2026-05-06 19:43 41.66050 -87.95780 5977 ft 229 kts 56°
2026-05-06 19:43 41.66888 -87.93955 5976 ft 229 kts 55°
2026-05-06 19:43 41.67716 -87.92152 5974 ft 229 kts 56°
2026-05-06 19:43 41.68556 -87.90322 5974 ft 229 kts 56°
2026-05-06 19:44 41.69375 -87.88537 5974 ft 229 kts 55°
2026-05-06 19:44 41.70182 -87.86777 5972 ft 229 kts 56°
2026-05-06 19:44 41.70828 -87.84823 5958 ft 233 kts 77°
2026-05-06 19:44 41.71018 -87.82811 5977 ft 233 kts 83°
2026-05-06 19:45 41.71139 -87.80591 5579 ft 251 kts 85°
2026-05-06 19:45 41.71243 -87.78189 5107 ft 267 kts 85°
2026-05-06 19:45 41.71558 -87.75774 4606 ft 275 kts 67°
2026-05-06 19:45 41.72882 -87.73075 4028 ft 269 kts 50°
2026-05-06 19:46 41.73651 -87.71733 3889 ft 260 kts 48°
2026-05-06 19:46 41.74773 -87.69939 3732 ft 249 kts 46°
2026-05-06 19:46 41.75882 -87.68195 3507 ft 243 kts 46°
2026-05-06 19:46 41.76984 -87.66495 3206 ft 240 kts 46°
2026-05-06 19:47 41.78729 -87.64915 2706 ft 231 kts
2026-05-06 19:47 41.79755 -87.64824 2497 ft 225 kts 351°
2026-05-06 19:47 41.81164 -87.65474 2325 ft 211 kts 325°
2026-05-06 19:47 41.82221 -87.66672 2198 ft 198 kts 302°
2026-05-06 19:48 41.82693 -87.68311 2124 ft 188 kts 279°
2026-05-06 19:48 41.82476 -87.69942 1961 ft 186 kts 241°
2026-05-06 19:48 41.81630 -87.71140 1817 ft 165 kts 230°
2026-05-06 19:48 41.80913 -87.72102 1547 ft 135 kts 231°
2026-05-06 19:49 41.80273 -87.72903 1137 ft 122 kts 229°
2026-05-06 19:49 41.79700 -87.73670 812 ft 112 kts 228°
2026-05-06 19:49 41.79168 -87.74345 646 ft 99 kts 228°
2026-05-06 19:49 41.78603 -87.75069 624 ft 68 kts 224°
2026-05-06 19:50 41.78411 -87.75311 624 ft 40 kts 226°
2026-05-06 19:50 41.78264 -87.75482 624 ft 23 kts 211°
2026-05-06 19:50 41.78125 -87.75549 624 ft 15 kts 192°
2026-05-06 19:50 41.78034 -87.75541 624 ft 12 kts 136°
2026-05-06 19:51 41.78027 -87.75465 624 ft 9 kts 41°
2026-05-06 19:51 41.78076 -87.75413 624 ft 8 kts 24°
2026-05-06 19:51 41.78106 -87.75408 624 ft 0 kts 133°